New Roads False River Regiona, LA

7:29 PM CST on December 06, 2019 (GMT -0600)
False River

Weather History for KHZR - November, 2019

Change the Weather History Date:

Saturday, November 16, 2019

  Actual Average (WUND) Record (WUND)
Temperature  
Mean Temperature 46 °F -  
Max Temperature 59 °F - - (-1)
Min Temperature 32 °F - - (-1)
Degree Days  
Heating Degree Days 20    
Moisture  
Dew Point 32 °F    
Average Humidity 67    
Maximum Humidity 100    
Minimum Humidity 33    
Precipitation  
Precipitation 0.00 in - - ()
Sea Level Pressure  
Sea Level Pressure 30.18 in    
Wind  
Wind Speed 2 mph ()    
Max Wind Speed 9 mph    
Max Gust Speed -    
Visibility 10.0 miles    
Events      
Averages and records for this station are not official NWS values.
T = Trace of Precipitation, MM = Missing Value Source: Averaged Metar Reports

Daily Weather History Graph

Daily Weather History Graph

Search for Another Location

Airport or City:

Astronomy

Nov. 16, 2019 Rise Set
Actual Time 6:32 AM CST 5:08 PM CST
Civil Twilight 6:07 AM CST 5:33 PM CST
Nautical Twilight 5:38 AM CST 6:02 PM CST
Astronomical Twilight 5:09 AM CST 6:31 PM CST
Moon 8:48 PM CST (11/16) 10:19 AM CST (11/16)
Length of Visible Light 11h 26m
Length of Day
10h 35m
Waning Gibbous, 82% of the Moon is Illuminated
Nov 16
Waning Gibbous
Nov 19
Last Quarter
Nov 26
New
Dec 4
First Quarter
Dec 11
Full

Hourly Weather History & Observations

Time (CST) Temp. Windchill Dew Point Humidity Pressure Visibility Wind Dir Wind Speed Gust Speed Precip Events Conditions
12:14 AM 37.4 °F - 33.8 °F 87% 30.25 in 10.0 mi Calm Calm - N/A   Clear
12:54 AM 37.4 °F - 33.8 °F 87% 30.25 in 10.0 mi Calm Calm - N/A   Clear
1:15 AM 37.4 °F - 33.8 °F 87% 30.25 in 10.0 mi Calm Calm - N/A   Clear
1:35 AM 35.6 °F - 32.0 °F 87% 30.25 in 10.0 mi Calm Calm - N/A   Clear
2:14 AM 35.6 °F - 32.0 °F 87% 30.24 in 10.0 mi Calm Calm - N/A   Clear
2:34 AM 37.4 °F 33.8 °F 32.0 °F 81% 30.24 in 10.0 mi NNW 4.6 mph - N/A   Clear
2:54 AM 37.4 °F 32.8 °F 32.0 °F 81% 30.24 in 10.0 mi NNW 5.8 mph - N/A   Clear
4:14 AM 35.6 °F 32.8 °F 30.2 °F 81% 30.23 in 10.0 mi North 3.5 mph - N/A   Clear
4:35 AM 33.8 °F - 32.0 °F 93% 30.23 in 10.0 mi Calm Calm - N/A   Clear
5:34 AM 35.6 °F - 32.0 °F 87% 30.23 in 10.0 mi North - - N/A   Clear
5:55 AM 33.8 °F - 32.0 °F 93% 30.24 in 10.0 mi North - - N/A   Clear
6:36 AM 32.0 °F - 30.2 °F 93% 30.24 in 10.0 mi North - - N/A   Clear
6:54 AM 33.8 °F 30.8 °F 32.0 °F 93% 30.25 in 10.0 mi NNW 3.5 mph - N/A   Clear
7:14 AM 35.6 °F - 33.8 °F 93% 30.26 in 10.0 mi Calm Calm - N/A   Clear
7:36 AM 37.4 °F 34.9 °F 32.0 °F 81% 30.26 in 10.0 mi NNE 3.5 mph - N/A   Clear
8:14 AM 39.2 °F - 32.0 °F 75% 30.25 in 10.0 mi North - - N/A   Clear
8:34 AM 41.0 °F - 32.0 °F 70% 30.26 in 10.0 mi North - - N/A   Clear
8:56 AM 42.8 °F 38.6 °F 30.2 °F 61% 30.26 in 10.0 mi NNE 6.9 mph - N/A   Clear
9:35 AM 44.6 °F 41.4 °F 30.2 °F 57% 30.26 in 10.0 mi NNE 5.8 mph - N/A   Clear
9:54 AM 46.4 °F 44.3 °F 30.2 °F 53% 30.26 in 10.0 mi North 4.6 mph - N/A   Clear
10:14 AM 46.4 °F - 30.2 °F 53% 30.25 in 10.0 mi Calm Calm - N/A   Clear
10:34 AM 48.2 °F - 30.2 °F 50% 30.24 in 10.0 mi Calm Calm - N/A   Clear
10:54 AM 51.8 °F - 28.4 °F 41% 30.23 in 10.0 mi Calm Calm - N/A   Clear
11:54 AM 53.6 °F - 28.4 °F 38% 30.20 in 10.0 mi West 3.5 mph - N/A   Clear
12:14 PM 55.4 °F - 28.4 °F 36% 30.19 in 10.0 mi WNW 5.8 mph - N/A   Clear
12:56 PM 57.2 °F - 28.4 °F 33% 30.16 in 10.0 mi NW 5.8 mph - N/A   Clear
2:14 PM 59.0 °F - 30.2 °F 34% 30.13 in 10.0 mi WNW 8.1 mph - N/A   Clear
2:34 PM 59.0 °F - 30.2 °F 34% 30.12 in 10.0 mi WNW 5.8 mph - N/A   Clear
2:54 PM 59.0 °F - 30.2 °F 34% 30.12 in 10.0 mi NW 5.8 mph - N/A   Clear
3:14 PM 57.2 °F - 30.2 °F 36% 30.11 in 10.0 mi WNW 6.9 mph - N/A   Clear
3:35 PM 57.2 °F - 30.2 °F 36% 30.10 in 10.0 mi NW 9.2 mph - N/A   Clear
4:14 PM 57.2 °F - 28.4 °F 33% 30.10 in 10.0 mi NW 5.8 mph - N/A   Clear
5:15 PM 51.8 °F - 32.0 °F 47% 30.10 in 10.0 mi NW 4.6 mph - N/A   Clear
5:34 PM 48.2 °F - 30.2 °F 50% 30.11 in 10.0 mi NNW 5.8 mph - N/A   Clear
5:54 PM 48.2 °F - 30.2 °F 50% 30.10 in 10.0 mi NNW 5.8 mph - N/A   Clear
6:14 PM 48.2 °F - 30.2 °F 50% 30.11 in 10.0 mi North 5.8 mph - N/A   Clear
6:54 PM 46.4 °F 43.5 °F 30.2 °F 53% 30.12 in 10.0 mi NNW 5.8 mph - N/A   Clear
7:14 PM 44.6 °F 43.1 °F 30.2 °F 57% 30.13 in 10.0 mi NW 3.5 mph - N/A   Clear
7:36 PM 42.8 °F - 32.0 °F 66% 30.13 in 10.0 mi Calm Calm - N/A   Clear
7:55 PM 44.6 °F - 32.0 °F 61% 30.14 in 10.0 mi Calm Calm - N/A   Clear
8:14 PM 42.8 °F - 33.8 °F 70% 30.14 in 10.0 mi Calm Calm - N/A   Clear
8:35 PM 44.6 °F - 33.8 °F 66% 30.14 in 10.0 mi Calm Calm - N/A   Clear
8:56 PM 41.0 °F - 35.6 °F 81% 30.14 in 10.0 mi North - - N/A   Clear
9:14 PM 41.0 °F - 33.8 °F 76% 30.13 in 10.0 mi North - - N/A   Clear
9:34 PM 39.2 °F - 33.8 °F 81% 30.13 in 10.0 mi North - - N/A   Clear
9:54 PM 39.2 °F - 33.8 °F 81% 30.13 in 10.0 mi North - - N/A   Clear
10:14 PM 37.4 °F - 33.8 °F 87% 30.14 in 10.0 mi North - - N/A   Clear
10:35 PM 37.4 °F - 33.8 °F 87% 30.13 in 10.0 mi Calm Calm - N/A   Clear
11:34 PM 35.6 °F - 33.8 °F 93% 30.13 in 10.0 mi Calm Calm - N/A   Clear
11:56 PM 35.6 °F - 35.6 °F 100% 30.12 in 10.0 mi Calm Calm - N/A   Clear